Wind_Speed
10 9 8 9 10 10 10 7 5 7 6 6 6 6 6 6 7 8 7 6 6 7 7 7 10 11 10 9 9 12 14 13 13 12 12 13 15 15 13 10 9 9
12 10 9 11 11 9 8 7 6 7 7 6 7 8 7 6 6 7 6 6 6 8 9 9 10 10 10 9 9 13 14 13 13 12 12 14 14 14 14 13 11 10
13 11 10 12 11 8 7 7 7 8 7 5 7 8 6 6 6 6 6 7 6 7 10 10 9 9 10 10 10 12 13 13 13 11 10 11 11 12 14 14 13 12
13 12 12 12 11 8 7 6 6 6 5 5 8 7 5 5 6 6 6 6 5 7 10 11 9 9 9 9 9 11 11 10 10 9 9 10 12 15 16 14 12 12
13 12 13 13 11 8 6 4 4 4 4 6 6 5 4 5 6 5 5 4 4 6 9 11 10 10 9 9 9 9 9 9 9 8 9 11 14 16 15 13 12 12
12 12 13 13 10 8 6 4 3 4 4 4 4 2 3 5 6 5 5 4 4 4 6 8 9 9 9 8 8 8 9 9 9 9 10 13 14 14 14 13 14 15
10 12 13 12 10 8 7 5 4 5 5 5 4 3 3 6 7 6 5 4 3 3 4 6 8 8 9 9 9 9 10 10 11 11 13 14 14 14 13 12 13 16
10 11 12 12 11 10 8 6 6 7 6 5 3 4 6 7 7 6 5 4 4 4 4 5 6 7 9 9 9 11 12 13 12 12 14 15 15 14 12 10 11 12
10 11 11 12 13 12 10 8 8 8 6 5 5 5 7 7 8 7 7 6 6 5 4 5 5 7 9 8 10 13 15 14 11 12 14 15 14 12 12 11 10 9
10 10 12 14 14 13 10 9 11 10 7 5 5 5 6 8 8 8 9 8 8 6 5 5 6 8 8 8 10 14 15 13 12 14 15 15 12 10 9 9 7 6
11 11 13 15 14 12 11 10 12 10 6 6 7 7 9 10 9 9 10 10 9 7 6 6 7 8 8 8 10 13 14 12 12 13 13 12 10 8 7 7 6 4
13 13 13 13 12 11 11 12 11 8 6 8 9 9 10 11 10 10 10 10 10 9 8 8 8 9 9 8 10 11 12 11 11 12 12 11 11 9 8 7 6 5
11 11 11 10 11 11 12 12 11 9 9 10 10 10 10 11 11 10 10 10 10 10 10 9 9 9 10 11 11 11 11 11 11 13 13 12 12 10 8 7 7 6
10 9 8 7 8 10 10 10 11 11 10 11 11 10 10 11 11 11 12 11 11 11 11 12 11 11 12 14 13 13 13 14 14 14 13 12 12 10 9 11 10 10
9 9 9 7 7 9 9 9 9 10 11 12 11 11 11 11 11 11 12 13 13 12 12 13 14 14 14 15 15 15 15 16 15 15 14 13 14 14 14 15 13 13
8 8 9 9 9 10 10 10 8 8 10 11 11 12 13 12 12 12 12 13 14 14 15 16 16 17 17 17 16 16 16 17 16 16 16 16 17 17 18 17 15 14
6 6 7 7 8 8 8 8 9 9 11 12 12 12 12 13 14 14 14 14 14 15 16 17 18 19 18 18 19 19 19 19 19 19 20 20 19 19 19 18 18 16
4 4 4 5 5 5 5 6 8 9 11 13 14 14 14 15 15 16 17 17 17 17 16 17 19 20 20 21 22 22 23 23 22 22 23 22 21 21 20 20 19 18
4 2 2 2 3 4 4 7 9 9 10 12 14 15 17 18 18 18 18 20 21 21 19 19 19 19 21 24 25 25 27 27 26 25 24 24 24 24 23 22 21 20
6 4 3 3 1 3 5 6 8 9 11 13 15 16 17 18 20 21 21 21 22 23 24 25 24 22 23 25 26 27 29 30 29 28 26 25 26 27 26 25 24 23
9 7 6 5 4 3 4 5 6 8 9 11 13 14 15 17 19 19 20 21 23 24 26 28 28 26 27 28 29 29 30 31 31 30 29 28 27 27 27 27 26 26
9 8 7 5 4 3 4 5 6 8 8 8 9 11 13 15 17 17 17 19 21 24 26 29 29 28 28 30 31 31 31 32 34 34 32 29 25 25 26 25 26 26
5 4 3 2 2 2 3 4 5 6 7 8 9 10 12 13 15 17 17 18 20 23 25 28 29 29 29 30 31 32 33 34 35 36 35 32 27 26 25 24 25 25
7 6 6 7 6 6 6 7 7 6 6 7 9 12 14 15 16 17 18 19 20 22 23 25 28 29 30 30 31 33 34 34 35 37 39 37 34 32 29 26 27 26
12 12 12 13 14 14 13 12 11 11 10 9 10 11 14 15 16 18 20 20 21 22 23 24 26 28 28 28 29 31 32 33 35 38 40 38 36 35 32 30 30 27
14 15 15 17 18 20 20 19 18 19 18 17 16 15 15 16 16 18 20 21 22 22 22 23 25 26 26 25 27 28 30 33 35 36 35 34 33 33 32 31 31 28
Wind_Direction
174 182 181 158 156 157 152 161 150 131 143 160 166 171 181 174 150 159 168 152 140 129 117 115 114 110 106 110 115 115 114 116 121 128 134 134 135 138 137 134 143 145
178 186 183 165 170 177 167 165 156 149 160 181 198 201 208 206 187 182 169 140 133 134 124 115 117 121 120 122 126 122 119 117 118 125 139 142 143 146 139 127 126 129
184 190 186 181 189 192 179 176 171 168 176 204 230 234 239 224 197 176 156 148 151 149 141 135 137 142 139 138 138 132 129 126 125 129 135 136 136 134 124 115 115 119
195 199 191 192 200 196 185 190 186 183 199 232 245 252 256 229 202 181 170 169 168 162 155 147 142 143 144 147 149 146 144 141 138 138 136 134 131 125 119 118 124 127
207 206 198 199 204 201 199 196 188 203 234 245 242 249 255 234 213 197 187 175 161 157 158 157 154 149 147 154 161 157 150 143 140 145 142 136 135 134 131 132 133 127
208 202 202 208 209 207 208 191 190 224 232 222 206 197 225 220 206 199 196 185 170 160 161 164 161 153 152 160 157 147 146 145 141 140 136 132 134 134 129 127 126 117
203 200 207 217 215 210 207 194 207 220 200 179 171 179 206 204 196 193 197 193 164 146 152 157 157 154 152 147 139 139 143 138 130 130 132 130 126 122 120 125 130 126
208 207 214 221 216 210 207 205 214 213 200 189 191 210 214 198 183 176 176 155 133 145 161 159 163 159 143 137 144 148 140 128 130 141 142 137 130 129 133 136 138 140
212 209 211 214 215 213 212 218 218 210 209 204 190 203 207 185 169 166 161 151 151 168 175 159 163 159 146 153 167 153 138 135 149 161 153 144 144 148 151 149 151 156
208 204 204 207 212 217 220 222 215 209 210 197 175 179 173 161 172 178 166 165 169 172 177 167 167 169 162 177 181 158 147 155 170 176 164 151 151 158 159 162 168 165
200 196 200 204 212 221 219 210 208 209 201 172 166 171 165 166 190 192 174 176 176 169 184 185 183 186 177 183 185 167 162 170 176 177 164 148 150 165 170 172 165 148
191 189 192 199 209 210 197 189 193 194 177 170 176 183 179 178 193 193 183 189 184 176 188 196 199 198 186 185 189 179 176 177 174 170 159 155 165 167 165 164 148 139
180 182 187 195 196 188 185 186 187 183 173 174 184 194 194 190 191 190 191 197 196 191 193 202 211 204 191 193 192 186 184 181 180 176 168 175 180 167 164 170 157 161
165 167 178 185 172 170 183 195 201 205 195 182 185 199 209 208 197 193 198 200 202 205 201 206 216 208 203 208 205 198 193 189 193 190 179 182 181 170 183 188 177 188
160 163 170 172 161 168 190 207 216 220 205 189 191 200 209 215 205 201 209 205 202 209 212 214 218 211 210 216 214 211 210 206 205 198 189 189 183 181 196 199 197 211
159 164 171 177 178 183 200 215 215 206 195 192 201 207 209 213 210 210 220 220 212 211 214 218 220 216 214 219 218 214 216 216 210 201 200 205 203 204 208 209 214 224
155 165 175 182 186 190 202 213 210 201 197 197 203 210 214 218 218 214 218 226 227 222 220 222 224 220 216 219 221 216 216 217 213 209 211 215 219 222 219 216 220 224
120 148 173 181 185 190 202 216 220 215 211 211 211 214 220 226 230 227 220 221 226 225 225 228 231 228 223 222 224 222 221 223 223 225 224 221 224 229 227 220 218 221
75 87 104 152 192 212 226 234 238 233 230 233 232 231 233 235 238 240 235 232 231 227 225 229 232 230 226 227 228 227 227 230 233 237 236 231 228 228 228 225 223 229
53 41 32 28 333 270 261 254 251 245 241 244 242 239 240 241 243 244 243 241 237 230 228 232 232 228 225 228 232 232 232 235 237 240 242 241 235 228 228 232 235 243
57 51 38 20 357 313 280 264 253 246 244 244 243 240 240 241 243 245 246 247 242 235 233 235 235 232 230 229 231 235 236 237 237 238 240 241 239 235 234 236 245 255
60 62 59 42 17 341 300 288 274 264 258 251 246 247 248 247 247 249 251 250 246 241 239 240 240 239 237 234 234 237 238 238 238 238 238 239 242 246 247 247 251 254
36 48 68 60 23 352 291 278 273 276 283 280 271 265 260 256 256 260 261 257 253 248 245 246 247 245 242 240 240 241 241 243 243 241 239 240 245 250 251 248 243 239
326 320 308 295 291 284 263 242 232 240 261 276 280 278 273 269 266 265 266 264 261 259 255 253 251 247 244 242 242 243 243 245 245 244 243 245 248 251 249 239 233 234
307 304 300 291 284 280 273 261 251 249 249 250 259 268 274 277 275 271 271 268 264 263 262 259 254 251 249 248 247 247 246 245 245 245 248 251 252 252 246 232 227 231
287 283 280 278 278 279 279 277 274 272 270 268 265 264 265 268 268 267 268 268 265 263 261 259 255 251 249 251 253 252 251 248 244 244 249 253 250 245 237 226 221 222
Height
1519 1521 1522 1523 1525 1526 1527 1528 1530 1531 1533 1534 1535 1535 1535 1536 1536 1537 1538 1538 1539 1540 1541 1542 1543 1544 1545 1546 1546 1546 1547 1548 1549 1550 1551 1552 1553 1554 1555 1556 1556 1557
1518 1520 1522 1523 1524 1525 1526 1528 1529 1531 1532 1533 1534 1534 1534 1535 1536 1536 1537 1538 1539 1540 1541 1542 1543 1544 1545 1546 1546 1547 1548 1548 1549 1550 1551 1552 1553 1554 1555 1556 1556 1557
1517 1519 1521 1522 1523 1525 1526 1527 1529 1530 1531 1532 1532 1532 1533 1534 1535 1535 1536 1537 1538 1539 1540 1542 1543 1544 1545 1546 1546 1547 1548 1548 1549 1550 1551 1552 1553 1554 1555 1556 1557 1557
1516 1518 1519 1521 1523 1525 1526 1527 1529 1530 1530 1531 1532 1532 1533 1533 1534 1535 1535 1536 1537 1538 1540 1541 1542 1543 1545 1545 1546 1547 1547 1548 1549 1550 1551 1552 1553 1554 1555 1556 1557 1557
1516 1518 1519 1521 1522 1524 1526 1527 1528 1529 1530 1531 1531 1532 1532 1533 1534 1534 1535 1536 1537 1538 1539 1540 1542 1543 1544 1545 1546 1547 1548 1549 1550 1551 1551 1552 1553 1554 1555 1556 1557 1558
1516 1518 1519 1521 1522 1524 1525 1526 1528 1529 1530 1531 1531 1532 1532 1533 1534 1534 1535 1536 1537 1538 1539 1540 1542 1543 1544 1545 1545 1546 1548 1549 1550 1551 1552 1553 1554 1555 1556 1557 1558 1558
1517 1518 1519 1521 1522 1523 1524 1526 1527 1528 1529 1530 1531 1532 1532 1533 1533 1534 1535 1536 1537 1539 1540 1541 1542 1543 1544 1545 1546 1547 1548 1549 1551 1552 1553 1554 1555 1556 1557 1558 1559 1559
1517 1518 1519 1521 1522 1523 1524 1526 1527 1528 1529 1530 1530 1531 1532 1532 1533 1534 1535 1536 1538 1539 1540 1541 1542 1543 1545 1546 1547 1547 1548 1550 1551 1552 1553 1555 1556 1557 1558 1559 1559 1560
1516 1518 1520 1520 1521 1523 1524 1525 1527 1527 1528 1529 1530 1531 1531 1532 1533 1535 1536 1537 1539 1540 1541 1542 1543 1544 1545 1546 1547 1548 1549 1551 1552 1553 1554 1555 1556 1557 1558 1559 1559 1560
1516 1518 1520 1520 1521 1523 1524 1525 1526 1527 1528 1528 1529 1530 1531 1532 1534 1535 1537 1538 1539 1540 1541 1542 1544 1545 1546 1547 1548 1549 1550 1551 1552 1553 1554 1555 1556 1557 1558 1559 1559 1560
1516 1518 1519 1520 1521 1522 1524 1525 1525 1526 1527 1528 1529 1530 1531 1533 1534 1535 1537 1538 1539 1540 1541 1542 1544 1545 1546 1547 1548 1549 1550 1551 1552 1554 1555 1556 1557 1558 1558 1559 1560 1560
1516 1518 1519 1520 1521 1522 1524 1525 1526 1526 1527 1528 1529 1530 1532 1533 1535 1536 1537 1539 1540 1541 1542 1542 1543 1545 1546 1547 1548 1550 1551 1552 1553 1554 1556 1557 1558 1558 1559 1559 1560 1561
1516 1518 1519 1520 1521 1522 1524 1525 1526 1527 1528 1529 1530 1531 1532 1533 1535 1536 1538 1539 1540 1541 1542 1543 1543 1545 1546 1547 1549 1550 1551 1552 1553 1554 1555 1556 1557 1558 1559 1559 1560 1561
1517 1518 1519 1521 1522 1523 1524 1525 1526 1527 1528 1529 1531 1531 1532 1533 1535 1537 1538 1539 1540 1541 1542 1543 1543 1544 1546 1547 1548 1549 1551 1552 1552 1553 1555 1555 1556 1557 1557 1557 1558 1559
1517 1518 1520 1521 1522 1524 1525 1526 1526 1527 1527 1529 1531 1532 1533 1534 1535 1536 1537 1539 1540 1540 1541 1542 1543 1544 1545 1546 1548 1549 1550 1551 1552 1553 1554 1555 1555 1555 1555 1556 1556 1557
1517 1519 1520 1521 1522 1523 1525 1525 1526 1527 1527 1529 1530 1532 1533 1534 1535 1536 1537 1538 1539 1539 1540 1541 1542 1543 1544 1546 1547 1548 1549 1550 1551 1552 1552 1553 1553 1553 1553 1554 1555 1555
1517 1519 1520 1521 1522 1523 1524 1524 1525 1526 1527 1529 1530 1531 1532 1533 1534 1535 1536 1537 1538 1538 1539 1540 1541 1542 1544 1546 1547 1548 1549 1549 1550 1550 1550 1551 1551 1551 1552 1553 1553 1553
1519 1519 1520 1521 1522 1523 1524 1524 1525 1525 1526 1528 1529 1530 1531 1532 1532 1533 1535 1536 1536 1537 1539 1541 1542 1543 1545 1546 1547 1547 1548 1548 1548 1548 1548 1549 1550 1550 1550 1551 1551 1551
1520 1520 1521 1522 1522 1522 1523 1523 1524 1525 1526 1526 1527 1528 1529 1530 1531 1532 1533 1534 1535 1536 1538 1539 1540 1543 1545 1545 1545 1546 1546 1546 1546 1546 1546 1547 1547 1547 1548 1547 1548 1549
1521 1521 1521 1522 1522 1523 1523 1524 1525 1525 1526 1526 1527 1527 1528 1529 1529 1530 1531 1532 1533 1534 1535 1535 1537 1541 1542 1543 1544 1544 1544 1544 1544 1544 1544 1544 1545 1545 1545 1545 1545 1546
1521 1522 1523 1524 1525 1525 1525 1526 1527 1527 1527 1527 1527 1527 1527 1527 1527 1527 1528 1529 1530 1531 1531 1532 1534 1537 1538 1539 1541 1541 1541 1542 1542 1541 1541 1542 1542 1542 1542 1543 1543 1543
1520 1522 1523 1524 1526 1527 1527 1527 1527 1527 1527 1526 1526 1526 1525 1525 1525 1525 1526 1526 1527 1528 1529 1529 1530 1533 1534 1535 1536 1538 1538 1538 1538 1538 1538 1538 1539 1539 1540 1540 1540 1539
1520 1521 1522 1523 1524 1525 1526 1526 1526 1525 1525 1525 1525 1524 1524 1524 1523 1523 1523 1523 1523 1524 1525 1525 1526 1528 1530 1532 1533 1534 1534 1534 1535 1535 1534 1535 1536 1536 1537 1537 1536 1536
1520 1521 1521 1522 1523 1524 1524 1523 1523 1523 1523 1523 1523 1523 1522 1522 1522 1521 1521 1521 1521 1521 1521 1522 1523 1524 1526 1528 1528 1529 1529 1530 1530 1531 1530 1531 1531 1532 1533 1533 1533 1533
1520 1520 1521 1522 1523 1523 1522 1522 1521 1521 1521 1521 1521 1521 1521 1521 1521 1520 1519 1519 1518 1519 1519 1520 1521 1521 1522 1523 1523 1524 1524 1525 1526 1526 1526 1527 1527 1528 1528 1528 1529 1529
1520 1521 1521 1521 1521 1521 1520 1520 1520 1520 1519 1519 1519 1519 1519 1519 1519 1519 1518 1517 1516 1516 1517 1518 1518 1518 1518 1519 1519 1519 1520 1520 1521 1522 1523 1523 1524 1524 1523 1524 1526 1526